User: anonymous   Login
Location: downtown San Diego
(32.7310°N, 117.1990°W)
Time: 04:38:52
(UTC-07:00)
Language:

Meteor 1-15 Rocket - Orbit

View from above orbital plane
View from above orbital plane
View from above satellite
View from above satellite

Ground track
Ground track

The orbit data is extracted from the following two-line orbital elements,

1 06660U 73034B   18145.80903329  .00000045  00000-0  20127-4 0  9993
2 06660  81.2334  33.8599 0046436 205.5206 154.3671 14.05816830306531
Epoch (UTC): 25 May 2018 19:25:00
Eccentricity: 0.0046436
inclination: 81.2334°
perigee height: 840 km
apogee height: 907 km
right ascension of ascending node: 33.8599°
argument of perigee: 205.5206°
revolutions per day: 14.05816830
mean anomaly at epoch: 154.3671°
orbit number at epoch: 30653

The dashed part of the orbit path shows where the satellite is in the earth's shadow,  

DLR